Location: Monrovia
(34.7865°N, 86.7139°W)
Time: 14:57:34
(UTC+00:00)

Cosmos 1727 Rocket - Pass Details

Date: 14 July 2020
Orbit: 962 x 996 km, 82.9° (Epoch: 12 August)

Event Time Altitude Azimuth Distance (km) Brightness Sun altitude
Rises 04:54:04 0° 354° (N) 3,684 8.1 -31.9°
Reaches altitude 10° 04:56:34 10° 355° (N) 2,738 7.2 -32.0°
Enters shadow 05:02:06 71° 5° (N) 1,042 4.1 -32.3°
